Weather History for Burlington, IA

Change the Weather History Date:

Friday, February 28, 2014

  Actual Average Record
Temperature  
Mean Temperature 24 °F 35 °F  
Max Temperature 41 °F 44 °F 69 °F (1932)
Min Temperature 7 °F 26 °F -7 °F (1962)
Degree Days  
Heating Degree Days 41 30  
Month to date heating degree days 1348 976  
Since 1 July heating degree days 5323 4378  
Cooling Degree Days 0 0  
Month to date cooling degree days 0 0  
Year to date cooling degree days 0 0  
Moisture  
Dew Point 11 °F    
Average Humidity 57    
Maximum Humidity 73    
Minimum Humidity 40    
Precipitation  
Precipitation 0.00 in 0.08 in 0.54 in (1951)
Month to date precipitation 3.29 1.62  
Year to date precipitation 4.37 2.86  
Sea Level Pressure  
Sea Level Pressure 30.02 in    
Wind  
Wind Speed 11 mph (SSE)    
Max Wind Speed 21 mph    
Max Gust Speed 26 mph    
Visibility 10 miles    
Events      
T = Trace of Precipitation, MM = Missing Value Source: NWS Daily Summary

Daily Weather History Graph

Daily Weather History Graph

Search for Another Location

Airport:

Trip Planner

Search our weather history database for the weather conditions in past years. The results will help you decide how hot, cold, wet, or windy it might be!

Date:

Astronomy

Feb. 28, 2014 Rise Set
Actual Time 6:39 AM CST 5:54 PM CST
Civil Twilight 6:12 AM CST 6:22 PM CST
Nautical Twilight 5:40 AM CST 6:53 PM CST
Astronomical Twilight 5:09 AM CST 7:25 PM CST
Moon 5:54 AM CST (2/28) 5:31 PM CST (2/28)
Length of Visible Light 12h 09m
Length of Day
11h 14m
Waning Crescent, 1% of the Moon is Illuminated
Feb 28
Waning Crescent
Mar 1
New
Mar 8
First Quarter
Mar 16
Full
Mar 23
Last Quarter

Hourly Weather History & Observations

Time (CST) Temp. Windchill Dew Point Humidity Pressure Visibility Wind Dir Wind Speed Gust Speed Precip Events Conditions
12:53 AM 8.1 °F -3.2 °F -4.0 °F 58% 30.15 in 10.0 mi East 6.9 mph - N/A   Partly Cloudy
1:53 AM 7.0 °F -5.7 °F -2.9 °F 64% 30.15 in 10.0 mi ESE 8.1 mph - N/A   Partly Cloudy
2:53 AM 7.0 °F -8.3 °F -2.0 °F 67% 30.14 in 10.0 mi ESE 11.5 mph - N/A   Clear
3:53 AM 8.1 °F -7.7 °F -0.9 °F 67% 30.12 in 10.0 mi ESE 12.7 mph - N/A   Partly Cloudy
4:53 AM 8.1 °F -7.7 °F -0.0 °F 70% 30.11 in 10.0 mi ESE 12.7 mph - N/A   Mostly Cloudy
5:53 AM 9.0 °F -7.3 °F 1.0 °F 70% 30.10 in 10.0 mi SE 13.8 mph 19.6 mph N/A   Overcast
6:53 AM 10.0 °F -3.7 °F 1.9 °F 70% 30.11 in 10.0 mi SE 10.4 mph - N/A   Overcast
7:53 AM 12.0 °F -1.3 °F 3.0 °F 67% 30.09 in 10.0 mi SE 10.4 mph - N/A   Partly Cloudy
8:53 AM 17.1 °F 2.5 °F 5.0 °F 59% 30.07 in 10.0 mi SE 15.0 mph - N/A   Clear
9:53 AM 19.0 °F 6.1 °F 6.1 °F 57% 30.04 in 10.0 mi SSE 12.7 mph - N/A   Clear
10:53 AM 26.1 °F 15.6 °F 10.0 °F 51% 30.03 in 10.0 mi SSE 11.5 mph 20.7 mph N/A   Clear
11:53 AM 28.0 °F 18.6 °F 12.0 °F 51% 30.02 in 10.0 mi SSE 10.4 mph - N/A   Clear
12:53 PM 32.0 °F 21.2 °F 15.1 °F 50% 29.98 in 10.0 mi South 16.1 mph 24.2 mph N/A   Clear
1:53 PM 36.0 °F 27.1 °F 17.1 °F 46% 29.94 in 10.0 mi South 13.8 mph 20.7 mph N/A   Clear
2:53 PM 39.0 °F 31.8 °F 18.0 °F 43% 29.93 in 10.0 mi South 11.5 mph - N/A   Clear
3:53 PM 41.0 °F 34.3 °F 19.9 °F 43% 29.91 in 10.0 mi South 11.5 mph - N/A   Clear
4:53 PM 39.9 °F 33.4 °F 21.0 °F 47% 29.92 in 10.0 mi South 10.4 mph - N/A   Clear
5:53 PM 37.0 °F 31.6 °F 21.0 °F 52% 29.93 in 10.0 mi South 6.9 mph - N/A   Clear
6:53 PM 37.9 °F 32.1 °F 19.9 °F 48% 29.94 in 10.0 mi SSE 8.1 mph - N/A   Partly Cloudy
7:53 PM 35.1 °F 29.3 °F 19.9 °F 54% 29.95 in 10.0 mi SSE 6.9 mph - N/A   Clear
8:53 PM 36.0 °F 29.6 °F 19.9 °F 52% 29.95 in 10.0 mi South 8.1 mph - N/A   Clear
9:53 PM 37.0 °F 29.3 °F 19.9 °F 50% 29.95 in 10.0 mi South 11.5 mph - N/A   Overcast
10:53 PM 37.0 °F 29.8 °F 21.9 °F 54% 29.96 in 10.0 mi South 10.4 mph - N/A   Overcast
11:53 PM 35.1 °F 30.1 °F 21.9 °F 59% 30.00 in 10.0 mi NW 5.8 mph - N/A   Mostly Cloudy